Buffalo, NY

7:56 AM EST on November 18, 2017 (GMT -0500)
Buffalo Niagara International

Weather History for KBUF - February, 2013

Change the Weather History Date:

Tuesday, February 12, 2013

  Actual Average Record
Temperature  
Mean Temperature 32 °F 26 °F  
Max Temperature 33 °F 33 °F 63 °F (1999)
Min Temperature 31 °F 19 °F -10 °F (1979)
Degree Days  
Heating Degree Days 33 39  
Month to date heating degree days 501 479  
Since 1 July heating degree days 3739 4138  
Cooling Degree Days 0 0  
Month to date cooling degree days 0 0  
Year to date cooling degree days 0 0  
Moisture  
Dew Point 25 °F    
Average Humidity 79    
Maximum Humidity 85    
Minimum Humidity 72    
Precipitation  
Precipitation 0.01 in 0.08 in 1.41 in (1910)
Month to date precipitation 1.04 1.05  
Year to date precipitation 3.54 4.23  
Snow  
Snow 0.30 in 0.60 in 14.10 in (1910)
Month to date snowfall 17.9 7.9  
Since 1 July snowfall 46.1 69.4  
Snow Depth 2.00 in    
Sea Level Pressure  
Sea Level Pressure 29.90 in    
Wind  
Wind Speed 18 mph (WSW)    
Max Wind Speed 32 mph    
Max Gust Speed 43 mph    
Visibility 9 miles    
Events Snow    
T = Trace of Precipitation, MM = Missing Value Source: NWS Daily Summary

Daily Weather History Graph

Daily Weather History Graph

Search for Another Location

Airport or City:

Trip Planner

Search our weather history database for the weather conditions in past years. The results will help you decide how hot, cold, wet, or windy it might be!

Date:

Astronomy

Feb. 12, 2013 Rise Set
Actual Time 7:16 AM EST 5:42 PM EST
Civil Twilight 6:46 AM EST 6:12 PM EST
Nautical Twilight 6:13 AM EST 6:45 PM EST
Astronomical Twilight 5:40 AM EST 7:18 PM EST
Moon 8:07 AM EST (2/12) 8:47 PM EST (2/12)
Length of Visible Light 11h 25m
Length of Day
10h 26m
Waxing Crescent, 7% of the Moon is Illuminated
Feb 12
Waxing Crescent
Feb 17
First Quarter
Feb 25
Full
Mar 4
Last Quarter
Mar 11
New

Hourly Weather History & Observations

Time (EST) Temp. Windchill Dew Point Humidity Pressure Visibility Wind Dir Wind Speed Gust Speed Precip Events Conditions
12:54 AM 32.0 °F 19.2 °F 28.9 °F 88% 29.77 in 1.0 mi WSW 23.0 mph 35.7 mph 0.00 in Snow Light Snow
1:24 AM 32.0 °F 19.5 °F 28.4 °F 87% 29.75 in 2.0 mi WSW 21.9 mph 34.5 mph 0.00 in Snow Light Snow
1:28 AM 32.0 °F 18.6 °F 28.4 °F 87% 29.75 in 3.0 mi SW 25.3 mph 38.0 mph 0.00 in Snow Light Snow
1:54 AM 33.1 °F 20.9 °F 28.0 °F 82% 29.77 in 9.0 mi WSW 21.9 mph 40.3 mph 0.00 in Snow Light Snow
2:54 AM 33.1 °F 19.8 °F 27.0 °F 78% 29.80 in 9.0 mi WSW 26.5 mph 34.5 mph 0.00 in Snow Light Snow
3:54 AM 33.1 °F 20.1 °F 27.0 °F 78% 29.82 in 9.0 mi WSW 25.3 mph 36.8 mph 0.00 in Snow Light Snow
4:54 AM 32.0 °F 20.1 °F 28.0 °F 85% 29.84 in 6.0 mi WSW 19.6 mph 38.0 mph 0.00 in Snow Light Snow
5:54 AM 33.1 °F 21.2 °F 27.0 °F 78% 29.86 in 10.0 mi WSW 20.7 mph 31.1 mph 0.00 in Snow Light Snow
6:54 AM 33.1 °F 20.9 °F 27.0 °F 78% 29.88 in 9.0 mi WSW 21.9 mph 32.2 mph 0.00 in Snow Light Snow
7:31 AM 32.0 °F 20.5 °F 26.6 °F 80% 29.87 in 9.0 mi WSW 18.4 mph 31.1 mph 0.00 in Snow Light Snow
7:54 AM 32.0 °F 18.9 °F 27.0 °F 82% 29.91 in 9.0 mi WSW 24.2 mph 29.9 mph 0.00 in Snow Light Snow
8:54 AM 32.0 °F 19.2 °F 26.1 °F 79% 29.92 in 10.0 mi WSW 23.0 mph 34.5 mph 0.00 in Snow Light Snow
8:58 AM 32.0 °F 19.2 °F 26.6 °F 80% 29.90 in 10.0 mi WSW 23.0 mph 34.5 mph 0.00 in   Overcast
9:54 AM 33.1 °F 20.6 °F 24.1 °F 70% 29.94 in 10.0 mi WSW 23.0 mph 29.9 mph 0.00 in   Overcast
10:54 AM 32.0 °F 20.1 °F 25.0 °F 75% 29.95 in 10.0 mi WSW 19.6 mph 26.5 mph 0.00 in Snow Light Snow
11:54 AM 32.0 °F 20.1 °F 24.1 °F 73% 29.96 in 10.0 mi WSW 19.6 mph 27.6 mph 0.00 in Snow Light Snow
12:26 PM 32.0 °F 21.2 °F 24.8 °F 75% 29.94 in 8.0 mi WSW 16.1 mph 28.8 mph 0.00 in Snow Light Snow
12:54 PM 32.0 °F 21.2 °F 25.0 °F 75% 29.95 in 9.0 mi WSW 16.1 mph 26.5 mph 0.00 in Snow Light Snow
1:54 PM 32.0 °F 21.2 °F 25.0 °F 75% 29.94 in 10.0 mi WSW 16.1 mph - 0.00 in Snow Light Snow
2:51 PM 32.0 °F 19.8 °F 24.8 °F 75% 29.91 in 10.0 mi WSW 20.7 mph 27.6 mph 0.00 in   Overcast
2:54 PM 32.0 °F 20.5 °F 24.1 °F 73% 29.93 in 10.0 mi WSW 18.4 mph 27.6 mph 0.00 in   Overcast
3:34 PM 30.2 °F 19.3 °F 24.8 °F 80% 29.89 in 6.0 mi West 15.0 mph 25.3 mph 0.00 in Snow Light Snow
3:54 PM 30.9 °F 20.7 °F 24.1 °F 76% 29.91 in 7.0 mi WSW 13.8 mph - 0.00 in Snow Light Snow
4:48 PM 30.2 °F 20.8 °F 24.8 °F 80% 29.90 in 10.0 mi WSW 11.5 mph - 0.00 in Snow Light Snow
4:54 PM 30.9 °F 21.2 °F 24.1 °F 76% 29.93 in 10.0 mi WSW 12.7 mph - 0.00 in Snow Light Snow
5:28 PM 30.2 °F 19.8 °F 24.8 °F 80% 29.92 in 10.0 mi WSW 13.8 mph 21.9 mph 0.00 in Snow Light Snow
5:50 PM 30.2 °F 19.3 °F 24.8 °F 80% 29.92 in 10.0 mi WSW 15.0 mph 21.9 mph 0.00 in Snow Light Snow
5:54 PM 30.9 °F 20.2 °F 25.0 °F 79% 29.95 in 10.0 mi WSW 15.0 mph 24.2 mph 0.00 in Snow Light Snow
6:54 PM 30.9 °F 18.1 °F 25.0 °F 79% 29.96 in 10.0 mi SW 21.9 mph 28.8 mph 0.00 in Snow Light Snow
7:54 PM 30.9 °F 21.2 °F 25.0 °F 79% 29.98 in 10.0 mi WSW 12.7 mph - 0.00 in Snow Light Snow
7:58 PM 30.2 °F 20.2 °F 24.8 °F 80% 29.96 in 10.0 mi WSW 12.7 mph - 0.00 in Snow Light Snow
8:54 PM 30.9 °F 21.7 °F 25.0 °F 79% 29.96 in 10.0 mi West 11.5 mph - 0.00 in Snow Light Snow
9:54 PM 30.9 °F 20.7 °F 23.0 °F 72% 29.94 in 10.0 mi WSW 13.8 mph 20.7 mph 0.00 in Snow Light Snow
10:51 PM 30.2 °F 21.9 °F 21.2 °F 69% 29.90 in 10.0 mi West 9.2 mph - 0.00 in   Overcast
10:54 PM 30.9 °F 22.8 °F 21.9 °F 69% 29.93 in 10.0 mi West 9.2 mph - 0.00 in   Overcast
11:34 PM 30.2 °F 23.4 °F 21.2 °F 69% 29.89 in 10.0 mi WSW 6.9 mph - N/A   Overcast
11:43 PM 30.2 °F 21.3 °F 21.2 °F 69% 29.89 in 10.0 mi West 10.4 mph - N/A   Overcast
11:54 PM 30.9 °F 22.2 °F 21.9 °F 69% 29.92 in 10.0 mi West 10.4 mph - N/A   Overcast